Time,TemperatureF,DewpointF,PressureIn,WindDirection,WindDirectionDegrees,WindSpeedMPH,WindSpeedGustMPH,Humidity,HourlyPrecipIn,Conditions,Clouds,dailyrainin,SoftwareType,DateUTC
2013-04-22 00:00:00,59.9,44.2,29.91,NNW,331,0.0,1.0,56,0.00,,SKC,0.00,VWS V14.01,2013-04-22 07:00:00,
2013-04-22 00:10:00,59.7,44.0,29.91,NNW,330,0.0,1.0,56,0.00,,SKC,0.00,VWS V14.01,2013-04-22 07:10:00,
2013-04-22 00:15:00,59.5,43.3,29.91,NNW,331,0.0,1.0,55,0.00,,SKC,0.00,VWS V14.01,2013-04-22 07:15:00,
2013-04-22 00:20:00,59.5,43.8,29.92,NNW,331,0.0,0.0,56,0.00,,SKC,0.00,VWS V14.01,2013-04-22 07:20:00,
2013-04-22 00:25:00,59.2,44.0,29.92,NNW,331,0.0,1.0,57,0.00,,SKC,0.00,VWS V14.01,2013-04-22 07:25:00,
2013-04-22 00:30:00,59.0,44.3,29.91,NNW,330,0.0,0.0,58,0.00,,SKC,0.00,VWS V14.01,2013-04-22 07:30:00,
2013-04-22 00:35:00,59.0,43.8,29.92,NNW,331,0.0,0.0,57,0.00,,SKC,0.00,VWS V14.01,2013-04-22 07:35:00,
2013-04-22 00:40:00,58.9,44.2,29.91,NNW,331,0.0,0.0,58,0.00,,SKC,0.00,VWS V14.01,2013-04-22 07:40:00,
2013-04-22 00:50:00,58.7,43.1,29.92,NNW,330,0.0,0.0,56,0.00,,SKC,0.00,VWS V14.01,2013-04-22 07:50:00,
2013-04-22 00:55:00,58.7,42.6,29.92,NNW,331,0.0,0.0,55,0.00,,SKC,0.00,VWS V14.01,2013-04-22 07:55:00,
2013-04-22 01:00:00,58.6,43.0,29.92,NNW,331,0.0,0.0,56,0.00,,SKC,0.00,VWS V14.01,2013-04-22 08:00:00,
2013-04-22 01:05:00,58.5,43.3,29.91,NNW,330,0.0,0.0,57,0.00,,SKC,0.00,VWS V14.01,2013-04-22 08:05:00,
2013-04-22 01:10:00,58.3,43.2,29.92,NNW,330,0.0,0.0,57,0.00,,SKC,0.00,VWS V14.01,2013-04-22 08:10:00,
2013-04-22 01:15:00,58.1,43.0,29.91,NNW,331,0.0,0.0,57,0.00,,SKC,0.00,VWS V14.01,2013-04-22 08:15:00,
2013-04-22 01:20:00,58.0,42.9,29.91,NNW,331,0.0,0.0,57,0.00,,SKC,0.00,VWS V14.01,2013-04-22 08:20:00,
2013-04-22 01:25:00,57.8,43.1,29.91,NNW,330,0.0,0.0,58,0.00,,SKC,0.00,VWS V14.01,2013-04-22 08:25:00,
2013-04-22 01:35:00,57.3,43.1,29.91,NNW,331,0.0,0.0,59,0.00,,SKC,0.00,VWS V14.01,2013-04-22 08:35:00,
2013-04-22 01:40:00,57.1,42.9,29.91,NNW,331,0.0,0.0,59,0.00,,SKC,0.00,VWS V14.01,2013-04-22 08:40:00,
2013-04-22 01:45:00,56.9,42.7,29.91,NNW,330,0.0,0.0,59,0.00,,SKC,0.00,VWS V14.01,2013-04-22 08:45:00,
2013-04-22 01:55:00,56.7,42.5,29.90,NNW,331,0.0,0.0,59,0.00,,SKC,0.00,VWS V14.01,2013-04-22 08:55:00,
2013-04-22 02:00:00,56.5,42.4,29.90,NNW,331,0.0,0.0,59,0.00,,SKC,0.00,VWS V14.01,2013-04-22 09:00:00,
2013-04-22 02:05:00,56.3,42.6,29.90,NNW,331,0.0,2.0,60,0.00,,SKC,0.00,VWS V14.01,2013-04-22 09:05:00,
2013-04-22 02:10:00,56.2,42.1,29.90,NNW,331,0.0,0.0,59,0.00,,SKC,0.00,VWS V14.01,2013-04-22 09:10:00,
2013-04-22 02:15:00,56.1,42.8,29.90,NNW,331,0.0,0.0,61,0.00,,SKC,0.00,VWS V14.01,2013-04-22 09:15:00,
2013-04-22 02:20:00,56.0,42.3,29.91,NNW,330,0.0,1.0,60,0.00,,SKC,0.00,VWS V14.01,2013-04-22 09:20:00,
2013-04-22 02:25:00,56.1,42.4,29.91,NNW,331,0.0,1.0,60,0.00,,SKC,0.00,VWS V14.01,2013-04-22 09:25:00,
2013-04-22 02:30:00,56.5,42.8,29.91,NNW,330,0.0,3.0,60,0.00,,SKC,0.00,VWS V14.01,2013-04-22 09:30:00,
2013-04-22 02:35:00,56.7,43.0,29.91,NNW,331,0.0,2.0,60,0.00,,SKC,0.00,VWS V14.01,2013-04-22 09:35:00,
2013-04-22 02:40:00,56.8,43.5,29.91,NNW,330,0.0,0.0,61,0.00,,SKC,0.00,VWS V14.01,2013-04-22 09:40:00,
2013-04-22 02:45:00,56.7,43.4,29.90,NNW,331,0.0,1.0,61,0.00,,SKC,0.00,VWS V14.01,2013-04-22 09:45:00,
2013-04-22 02:50:00,56.6,43.8,29.90,NNW,338,0.0,3.0,62,0.00,,SKC,0.00,VWS V14.01,2013-04-22 09:50:00,
2013-04-22 02:55:00,56.5,43.7,29.90,NNW,337,0.0,0.0,62,0.00,,SKC,0.00,VWS V14.01,2013-04-22 09:55:00,
2013-04-22 03:00:00,56.4,43.6,29.90,NNW,337,0.0,4.0,62,0.00,,SKC,0.00,VWS V14.01,2013-04-22 10:00:00,
2013-04-22 03:05:00,56.4,44.0,29.90,NNW,337,1.0,1.0,63,0.00,,SKC,0.00,VWS V14.01,2013-04-22 10:05:00,
2013-04-22 03:10:00,56.3,43.9,29.90,NNW,338,0.0,2.0,63,0.00,,SKC,0.00,VWS V14.01,2013-04-22 10:10:00,
2013-04-22 03:15:00,56.2,44.2,29.90,NNW,338,0.0,1.0,64,0.00,,SKC,0.00,VWS V14.01,2013-04-22 10:15:00,
2013-04-22 03:20:00,56.0,44.0,29.90,NNW,338,0.0,0.0,64,0.00,,SKC,0.00,VWS V14.01,2013-04-22 10:20:00,
2013-04-22 03:25:00,55.9,43.9,29.90,NNW,338,0.0,0.0,64,0.00,,SKC,0.00,VWS V14.01,2013-04-22 10:25:00,
2013-04-22 03:30:00,55.8,43.8,29.90,NNW,337,0.0,1.0,64,0.00,,SKC,0.00,VWS V14.01,2013-04-22 10:30:00,
2013-04-22 03:35:00,55.7,43.7,29.90,NNW,337,0.0,0.0,64,0.00,,SKC,0.00,VWS V14.01,2013-04-22 10:35:00,
2013-04-22 03:40:00,55.6,44.0,29.90,NNW,338,0.0,1.0,65,0.00,,SKC,0.00,VWS V14.01,2013-04-22 10:40:00,
2013-04-22 03:45:00,55.5,43.9,29.89,NNW,338,0.0,1.0,65,0.00,,SKC,0.00,VWS V14.01,2013-04-22 10:45:00,
2013-04-22 03:50:00,55.6,43.6,29.89,NNW,338,0.0,1.0,64,0.00,,SKC,0.00,VWS V14.01,2013-04-22 10:50:00,
2013-04-22 03:55:00,55.8,43.8,29.89,NNW,337,0.0,1.0,64,0.00,,SKC,0.00,VWS V14.01,2013-04-22 10:55:00,
2013-04-22 04:00:00,56.0,44.0,29.89,NNW,338,0.0,0.0,64,0.00,,SKC,0.00,VWS V14.01,2013-04-22 11:00:00,
2013-04-22 04:05:00,56.1,44.1,29.89,NNW,338,0.0,1.0,64,0.00,,SKC,0.00,VWS V14.01,2013-04-22 11:05:00,
2013-04-22 04:10:00,56.2,44.6,29.89,NNW,338,0.0,0.0,65,0.00,,SKC,0.00,VWS V14.01,2013-04-22 11:10:00,
2013-04-22 04:15:00,56.4,44.4,29.89,NNW,337,0.0,0.0,64,0.00,,SKC,0.00,VWS V14.01,2013-04-22 11:15:00,
2013-04-22 04:20:00,56.8,44.8,29.89,NNW,337,0.0,1.0,64,0.00,,SKC,0.00,VWS V14.01,2013-04-22 11:20:00,
2013-04-22 04:25:00,57.5,44.6,29.89,NNW,338,0.0,2.0,62,0.00,,SKC,0.00,VWS V14.01,2013-04-22 11:25:00,
2013-04-22 04:30:00,59.0,44.3,29.89,NNW,337,0.0,2.0,58,0.00,,SKC,0.00,VWS V14.01,2013-04-22 11:30:00,
2013-04-22 04:35:00,60.2,45.4,29.89,NNW,337,0.0,2.0,58,0.00,,SKC,0.00,VWS V14.01,2013-04-22 11:35:00,
2013-04-22 04:40:00,60.8,45.5,29.89,NNW,337,1.0,2.0,57,0.00,,SKC,0.00,VWS V14.01,2013-04-22 11:40:00,
2013-04-22 04:45:00,61.2,45.4,29.89,SE,142,0.0,4.0,56,0.00,,SKC,0.00,VWS V14.01,2013-04-22 11:45:00,
2013-04-22 04:50:00,61.5,45.2,29.89,SE,142,0.0,2.0,55,0.00,,SKC,0.00,VWS V14.01,2013-04-22 11:50:00,
2013-04-22 04:55:00,61.7,45.4,29.89,SE,142,0.0,1.0,55,0.00,,SKC,0.00,VWS V14.01,2013-04-22 11:55:00,
2013-04-22 05:00:00,62.0,45.7,29.89,SE,142,0.0,1.0,55,0.00,,SKC,0.00,VWS V14.01,2013-04-22 12:00:00,
2013-04-22 05:05:00,62.2,44.9,29.89,SE,142,0.0,1.0,53,0.00,,SKC,0.00,VWS V14.01,2013-04-22 12:05:00,
2013-04-22 05:10:00,62.5,45.2,29.89,SSE,165,0.0,3.0,53,0.00,,SKC,0.00,VWS V14.01,2013-04-22 12:10:00,
2013-04-22 05:15:00,63.0,45.6,29.90,SSE,156,0.0,4.0,53,0.00,,SKC,0.00,VWS V14.01,2013-04-22 12:15:00,
2013-04-22 05:20:00,63.6,45.2,29.90,SE,128,0.0,4.0,51,0.00,,SKC,0.00,VWS V14.01,2013-04-22 12:20:00,
2013-04-22 05:30:00,64.2,45.7,29.90,East,88,0.0,1.0,51,0.00,,SKC,0.00,VWS V14.01,2013-04-22 12:30:00,
2013-04-22 05:40:00,64.2,45.2,29.90,East,95,0.0,5.0,50,0.00,,SKC,0.00,VWS V14.01,2013-04-22 12:40:00,
2013-04-22 05:45:00,64.2,45.2,29.90,East,95,1.0,2.0,50,0.00,,SKC,0.00,VWS V14.01,2013-04-22 12:45:00,
2013-04-22 05:50:00,64.3,45.8,29.90,East,95,0.0,1.0,51,0.00,,SKC,0.00,VWS V14.01,2013-04-22 12:50:00,
2013-04-22 05:55:00,64.1,45.6,29.90,East,95,0.0,1.0,51,0.00,,SKC,0.00,VWS V14.01,2013-04-22 12:55:00,
2013-04-22 06:00:00,63.9,44.9,29.90,ESE,105,0.0,3.0,50,0.00,,SKC,0.00,VWS V14.01,2013-04-22 13:00:00,
2013-04-22 06:05:00,64.4,45.4,29.90,NW,310,0.0,2.0,50,0.00,,SKC,0.00,VWS V14.01,2013-04-22 13:05:00,
2013-04-22 06:10:00,64.9,45.3,29.90,NNE,17,0.0,5.0,49,0.00,,SKC,0.00,VWS V14.01,2013-04-22 13:10:00,
2013-04-22 06:15:00,65.4,45.2,29.90,SE,146,5.0,7.0,48,0.00,,SKC,0.00,VWS V14.01,2013-04-22 13:15:00,
2013-04-22 06:20:00,66.1,45.3,29.90,ENE,72,1.0,6.0,47,0.00,,SKC,0.00,VWS V14.01,2013-04-22 13:20:00,
2013-04-22 06:25:00,66.3,44.9,29.90,NNE,24,0.0,5.0,46,0.00,,SKC,0.00,VWS V14.01,2013-04-22 13:25:00,
2013-04-22 06:30:00,66.5,45.1,29.90,NNE,32,0.0,5.0,46,0.00,,SKC,0.00,VWS V14.01,2013-04-22 13:30:00,
2013-04-22 06:35:00,66.7,45.3,29.90,SSW,208,0.0,5.0,46,0.00,,SKC,0.00,VWS V14.01,2013-04-22 13:35:00,
2013-04-22 06:40:00,66.9,44.9,29.91,SE,133,4.0,8.0,45,0.00,,SKC,0.00,VWS V14.01,2013-04-22 13:40:00,
2013-04-22 06:50:00,66.8,45.4,29.91,SE,129,0.0,5.0,46,0.00,,SKC,0.00,VWS V14.01,2013-04-22 13:50:00,
2013-04-22 06:55:00,66.6,45.2,29.91,SE,129,1.0,2.0,46,0.00,,SKC,0.00,VWS V14.01,2013-04-22 13:55:00,
2013-04-22 07:00:00,66.3,45.5,29.91,SE,136,0.0,3.0,47,0.00,,SKC,0.00,VWS V14.01,2013-04-22 14:00:00,
2013-04-22 07:05:00,66.2,44.8,29.91,ENE,65,0.0,2.0,46,0.00,,SKC,0.00,VWS V14.01,2013-04-22 14:05:00,
2013-04-22 07:10:00,66.2,45.4,29.92,NNE,15,0.0,4.0,47,0.00,,SKC,0.00,VWS V14.01,2013-04-22 14:10:00,
2013-04-22 07:15:00,66.2,46.0,29.92,WNW,291,1.0,2.0,48,0.00,,SKC,0.00,VWS V14.01,2013-04-22 14:15:00,
2013-04-22 07:25:00,66.6,45.2,29.92,West,267,0.0,4.0,46,0.00,,SKC,0.00,VWS V14.01,2013-04-22 14:25:00,
2013-04-22 07:30:00,66.7,45.8,29.92,West,267,0.0,3.0,47,0.00,,SKC,0.00,VWS V14.01,2013-04-22 14:30:00,
2013-04-22 07:40:00,66.9,46.0,29.92,West,267,0.0,2.0,47,0.00,,SKC,0.00,VWS V14.01,2013-04-22 14:40:00,
2013-04-22 07:45:00,67.2,46.3,29.92,West,267,0.0,2.0,47,0.00,,SKC,0.00,VWS V14.01,2013-04-22 14:45:00,
2013-04-22 07:50:00,67.6,45.5,29.92,NNE,25,0.0,5.0,45,0.00,,SKC,0.00,VWS V14.01,2013-04-22 14:50:00,
2013-04-22 07:55:00,68.1,46.0,29.92,ESE,114,0.0,5.0,45,0.00,,SKC,0.00,VWS V14.01,2013-04-22 14:55:00,
2013-04-22 08:00:00,68.5,45.8,29.92,South,175,0.0,5.0,44,0.00,,SKC,0.00,VWS V14.01,2013-04-22 15:00:00,
2013-04-22 08:05:00,68.9,45.5,29.93,SE,129,0.0,5.0,43,0.00,,SKC,0.00,VWS V14.01,2013-04-22 15:05:00,
2013-04-22 08:10:00,69.2,45.8,29.93,WNW,282,5.0,5.0,43,0.00,,SKC,0.00,VWS V14.01,2013-04-22 15:10:00,
2013-04-22 08:15:00,69.4,46.0,29.93,SE,146,1.0,5.0,43,0.00,,SKC,0.00,VWS V14.01,2013-04-22 15:15:00,
2013-04-22 08:20:00,69.8,46.3,29.93,SE,145,0.0,3.0,43,0.00,,SKC,0.00,VWS V14.01,2013-04-22 15:20:00,
2013-04-22 08:25:00,69.9,45.8,29.93,NNE,22,0.0,6.0,42,0.00,,SKC,0.00,VWS V14.01,2013-04-22 15:25:00,
2013-04-22 08:30:00,70.0,45.9,29.93,NNE,13,0.0,10.0,42,0.00,,SKC,0.00,VWS V14.01,2013-04-22 15:30:00,
2013-04-22 08:35:00,70.3,45.5,29.93,NNE,18,0.0,6.0,41,0.00,,SKC,0.00,VWS V14.01,2013-04-22 15:35:00,
2013-04-22 08:40:00,70.7,45.9,29.94,WNW,284,1.0,6.0,41,0.00,,SKC,0.00,VWS V14.01,2013-04-22 15:40:00,
2013-04-22 08:45:00,70.9,46.0,29.93,SE,142,0.0,6.0,41,0.00,,SKC,0.00,VWS V14.01,2013-04-22 15:45:00,
2013-04-22 08:50:00,71.2,45.7,29.93,West,259,0.0,4.0,40,0.00,,SKC,0.00,VWS V14.01,2013-04-22 15:50:00,
2013-04-22 08:55:00,71.3,45.8,29.94,WNW,284,0.0,5.0,40,0.00,,SKC,0.00,VWS V14.01,2013-04-22 15:55:00,
2013-04-22 09:00:00,71.7,45.5,29.94,NW,309,0.0,6.0,39,0.00,,SKC,0.00,VWS V14.01,2013-04-22 16:00:00,
2013-04-22 09:05:00,72.0,45.7,29.94,South,184,0.0,2.0,39,0.00,,SKC,0.00,VWS V14.01,2013-04-22 16:05:00,
2013-04-22 09:10:00,72.8,45.7,29.94,NNW,345,0.0,5.0,38,0.00,,SKC,0.00,VWS V14.01,2013-04-22 16:10:00,
2013-04-22 09:15:00,73.5,46.4,29.94,NW,316,8.0,9.0,38,0.00,,SKC,0.00,VWS V14.01,2013-04-22 16:15:00,
2013-04-22 09:20:00,73.8,46.6,29.94,North,10,4.0,8.0,38,0.00,,SKC,0.00,VWS V14.01,2013-04-22 16:20:00,
2013-04-22 09:25:00,73.7,46.5,29.94,NNW,331,2.0,5.0,38,0.00,,SKC,0.00,VWS V14.01,2013-04-22 16:25:00,
2013-04-22 09:30:00,73.6,46.5,29.94,NNE,32,0.0,5.0,38,0.00,,SKC,0.00,VWS V14.01,2013-04-22 16:30:00,
2013-04-22 09:35:00,73.5,47.0,29.94,NNW,334,0.0,6.0,39,0.00,,SKC,0.00,VWS V14.01,2013-04-22 16:35:00,
2013-04-22 09:40:00,73.3,46.9,29.93,North,351,1.0,7.0,39,0.00,,SKC,0.00,VWS V14.01,2013-04-22 16:40:00,
2013-04-22 09:45:00,73.5,47.0,29.93,North,10,3.0,7.0,39,0.00,,SKC,0.00,VWS V14.01,2013-04-22 16:45:00,
2013-04-22 09:55:00,75.1,47.8,29.93,NNW,344,0.0,6.0,38,0.00,,SKC,0.00,VWS V14.01,2013-04-22 16:55:00,
2013-04-22 10:00:00,76.4,48.2,29.93,NW,319,1.0,5.0,37,0.00,,SKC,0.00,VWS V14.01,2013-04-22 17:00:00,
2013-04-22 10:05:00,77.4,48.4,29.93,NNW,346,0.0,6.0,36,0.00,,SKC,0.00,VWS V14.01,2013-04-22 17:05:00,
2013-04-22 10:10:00,78.2,48.3,29.93,North,355,0.0,6.0,35,0.00,,SKC,0.00,VWS V14.01,2013-04-22 17:10:00,
2013-04-22 10:15:00,78.3,47.7,29.93,NNW,344,0.0,6.0,34,0.00,,SKC,0.00,VWS V14.01,2013-04-22 17:15:00,
2013-04-22 10:20:00,78.6,47.9,29.93,North,355,0.0,5.0,34,0.00,,SKC,0.00,VWS V14.01,2013-04-22 17:20:00,
2013-04-22 10:25:00,78.7,47.2,29.93,NNE,32,5.0,8.0,33,0.00,,SKC,0.00,VWS V14.01,2013-04-22 17:25:00,
2013-04-22 10:30:00,78.8,48.1,29.93,North,360,4.0,6.0,34,0.00,,SKC,0.00,VWS V14.01,2013-04-22 17:30:00,
2013-04-22 10:40:00,79.2,46.8,29.93,NNE,13,1.0,7.0,32,0.00,,SKC,0.00,VWS V14.01,2013-04-22 17:40:00,
2013-04-22 10:45:00,79.8,48.2,29.93,NE,36,2.0,7.0,33,0.00,,SKC,0.00,VWS V14.01,2013-04-22 17:45:00,
2013-04-22 10:50:00,80.1,47.6,29.93,NW,317,2.0,6.0,32,0.00,,SKC,0.00,VWS V14.01,2013-04-22 17:50:00,
2013-04-22 10:55:00,80.3,47.8,29.93,West,273,4.0,6.0,32,0.00,,SKC,0.00,VWS V14.01,2013-04-22 17:55:00,
2013-04-22 11:00:00,81.4,48.7,29.93,NW,307,1.0,9.0,32,0.00,,SKC,0.00,VWS V14.01,2013-04-22 18:00:00,
2013-04-22 11:10:00,82.9,48.3,29.93,WNW,288,1.0,7.0,30,0.00,,SKC,0.00,VWS V14.01,2013-04-22 18:10:00,
2013-04-22 11:15:00,82.6,47.2,29.93,NW,311,2.0,6.0,29,0.00,,SKC,0.00,VWS V14.01,2013-04-22 18:15:00,
2013-04-22 11:20:00,82.2,47.7,29.93,West,266,1.0,10.0,30,0.00,,SKC,0.00,VWS V14.01,2013-04-22 18:20:00,
2013-04-22 11:25:00,82.7,48.1,29.93,NW,308,4.0,6.0,30,0.00,,SKC,0.00,VWS V14.01,2013-04-22 18:25:00,
2013-04-22 11:30:00,82.9,47.4,29.93,WNW,302,7.0,7.0,29,0.00,,SKC,0.00,VWS V14.01,2013-04-22 18:30:00,
2013-04-22 11:35:00,83.1,47.6,29.93,WNW,291,4.0,12.0,29,0.00,,SKC,0.00,VWS V14.01,2013-04-22 18:35:00,
2013-04-22 11:40:00,83.4,46.9,29.93,WNW,288,6.0,9.0,28,0.00,,SKC,0.00,VWS V14.01,2013-04-22 18:40:00,
2013-04-22 11:50:00,84.0,47.4,29.92,NW,319,4.0,9.0,28,0.00,,SKC,0.00,VWS V14.01,2013-04-22 18:50:00,
2013-04-22 11:55:00,84.6,47.0,29.92,WNW,299,3.0,10.0,27,0.00,,SKC,0.00,VWS V14.01,2013-04-22 18:55:00,
2013-04-22 12:00:00,84.8,47.1,29.92,West,280,7.0,11.0,27,0.00,,SKC,0.00,VWS V14.01,2013-04-22 19:00:00,
2013-04-22 12:10:00,85.2,46.5,29.92,NNW,347,0.0,7.0,26,0.00,,SKC,0.00,VWS V14.01,2013-04-22 19:10:00,
2013-04-22 12:15:00,85.5,48.7,29.91,WNW,294,1.0,5.0,28,0.00,,SKC,0.00,VWS V14.01,2013-04-22 19:15:00,
2013-04-22 12:20:00,86.1,47.2,29.91,NW,318,1.0,6.0,26,0.00,,SKC,0.00,VWS V14.01,2013-04-22 19:20:00,
2013-04-22 12:25:00,85.9,46.0,29.91,NNW,348,2.0,9.0,25,0.00,,SKC,0.00,VWS V14.01,2013-04-22 19:25:00,
2013-04-22 12:30:00,85.6,46.8,29.91,West,276,5.0,8.0,26,0.00,,SKC,0.00,VWS V14.01,2013-04-22 19:30:00,
2013-04-22 12:35:00,86.5,46.5,29.90,West,275,1.0,7.0,25,0.00,,SKC,0.00,VWS V14.01,2013-04-22 19:35:00,
2013-04-22 12:40:00,87.7,47.5,29.90,North,349,4.0,7.0,25,0.00,,SKC,0.00,VWS V14.01,2013-04-22 19:40:00,
2013-04-22 12:45:00,87.4,47.3,29.90,North,351,0.0,6.0,25,0.00,,SKC,0.00,VWS V14.01,2013-04-22 19:45:00,
2013-04-22 12:50:00,87.2,46.0,29.90,West,279,1.0,8.0,24,0.00,,SKC,0.00,VWS V14.01,2013-04-22 19:50:00,
2013-04-22 13:00:00,87.1,46.0,29.89,North,355,4.0,9.0,24,0.00,,SKC,0.00,VWS V14.01,2013-04-22 20:00:00,
2013-04-22 13:05:00,87.1,46.0,29.89,NW,315,4.0,6.0,24,0.00,,SKC,0.00,VWS V14.01,2013-04-22 20:05:00,
2013-04-22 13:15:00,87.6,46.4,29.89,NNW,338,6.0,9.0,24,0.00,,SKC,0.00,VWS V14.01,2013-04-22 20:15:00,
2013-04-22 13:20:00,86.9,44.7,29.89,NW,319,4.0,8.0,23,0.00,,SKC,0.00,VWS V14.01,2013-04-22 20:20:00,
2013-04-22 13:25:00,87.1,46.0,29.88,WSW,251,8.0,8.0,24,0.00,,SKC,0.00,VWS V14.01,2013-04-22 20:25:00,
2013-04-22 13:30:00,87.9,45.5,29.88,NNE,19,0.0,8.0,23,0.00,,SKC,0.00,VWS V14.01,2013-04-22 20:30:00,
2013-04-22 13:35:00,88.3,45.8,29.88,NNW,333,0.0,5.0,23,0.00,,SKC,0.00,VWS V14.01,2013-04-22 20:35:00,
2013-04-22 13:40:00,88.4,45.9,29.88,West,279,1.0,9.0,23,0.00,,SKC,0.00,VWS V14.01,2013-04-22 20:40:00,
2013-04-22 13:45:00,88.1,45.7,29.88,North,360,5.0,5.0,23,0.00,,SKC,0.00,VWS V14.01,2013-04-22 20:45:00,
2013-04-22 13:55:00,88.7,46.2,29.87,West,272,5.0,9.0,23,0.00,,SKC,0.00,VWS V14.01,2013-04-22 20:55:00,
2013-04-22 14:00:00,88.8,46.3,29.87,North,9,2.0,8.0,23,0.00,,SKC,0.00,VWS V14.01,2013-04-22 21:00:00,
2013-04-22 14:10:00,89.4,45.6,29.87,WNW,300,1.0,8.0,22,0.00,,SKC,0.00,VWS V14.01,2013-04-22 21:10:00,
2013-04-22 14:15:00,89.1,45.3,29.86,North,10,0.0,7.0,22,0.00,,SKC,0.00,VWS V14.01,2013-04-22 21:15:00,
2013-04-22 14:20:00,89.8,45.9,29.86,NNE,22,5.0,5.0,22,0.00,,SKC,0.00,VWS V14.01,2013-04-22 21:20:00,
2013-04-22 14:25:00,89.7,44.6,29.86,West,268,4.0,9.0,21,0.00,,SKC,0.00,VWS V14.01,2013-04-22 21:25:00,
2013-04-22 14:35:00,90.0,44.9,29.86,NNW,342,1.0,5.0,21,0.00,,SKC,0.00,VWS V14.01,2013-04-22 21:35:00,
2013-04-22 14:40:00,90.3,45.1,29.86,WNW,292,4.0,6.0,21,0.00,,SKC,0.00,VWS V14.01,2013-04-22 21:40:00,
2013-04-22 14:45:00,90.2,45.0,29.86,NW,310,0.0,8.0,21,0.00,,SKC,0.00,VWS V14.01,2013-04-22 21:45:00,
2013-04-22 14:55:00,90.7,45.4,29.85,NNE,28,5.0,9.0,21,0.00,,SKC,0.00,VWS V14.01,2013-04-22 21:55:00,
2013-04-22 15:00:00,90.8,46.8,29.85,NW,306,5.0,7.0,22,0.00,,SKC,0.00,VWS V14.01,2013-04-22 22:00:00,
2013-04-22 15:05:00,91.2,45.8,29.85,WNW,298,2.0,6.0,21,0.00,,SKC,0.00,VWS V14.01,2013-04-22 22:05:00,
2013-04-22 15:15:00,91.1,43.2,29.84,NE,39,0.0,3.0,19,0.00,,SKC,0.00,VWS V14.01,2013-04-22 22:15:00,
2013-04-22 15:20:00,90.9,43.0,29.84,NW,313,3.0,10.0,19,0.00,,SKC,0.00,VWS V14.01,2013-04-22 22:20:00,
2013-04-22 15:25:00,90.7,42.8,29.84,East,87,1.0,7.0,19,0.00,,SKC,0.00,VWS V14.01,2013-04-22 22:25:00,
2013-04-22 15:30:00,90.5,44.0,29.83,NNE,32,0.0,4.0,20,0.00,,SKC,0.00,VWS V14.01,2013-04-22 22:30:00,
2013-04-22 15:35:00,90.7,44.2,29.83,NNE,33,4.0,7.0,20,0.00,,SKC,0.00,VWS V14.01,2013-04-22 22:35:00,
2013-04-22 15:45:00,91.1,45.8,29.83,WNW,295,1.0,7.0,21,0.00,,SKC,0.00,VWS V14.01,2013-04-22 22:45:00,
2013-04-22 15:50:00,91.2,44.6,29.83,NNE,19,4.0,8.0,20,0.00,,SKC,0.00,VWS V14.01,2013-04-22 22:50:00,
2013-04-22 15:55:00,90.3,43.8,29.82,NE,53,1.0,6.0,20,0.00,,SKC,0.00,VWS V14.01,2013-04-22 22:55:00,
2013-04-22 16:00:00,90.1,43.7,29.82,North,9,2.0,5.0,20,0.00,,SKC,0.00,VWS V14.01,2013-04-22 23:00:00,
2013-04-22 16:10:00,89.4,44.4,29.82,NNE,25,2.0,10.0,21,0.00,,SKC,0.00,VWS V14.01,2013-04-22 23:10:00,
2013-04-22 16:20:00,88.9,44.0,29.81,NNW,337,0.0,5.0,21,0.00,,SKC,0.00,VWS V14.01,2013-04-22 23:20:00,
2013-04-22 16:25:00,89.0,42.8,29.81,North,11,1.0,7.0,20,0.00,,SKC,0.00,VWS V14.01,2013-04-22 23:25:00,
2013-04-22 16:30:00,89.1,42.8,29.81,North,5,0.0,6.0,20,0.00,,SKC,0.00,VWS V14.01,2013-04-22 23:30:00,
2013-04-22 16:35:00,89.3,43.0,29.81,NW,325,1.0,8.0,20,0.00,,SKC,0.00,VWS V14.01,2013-04-22 23:35:00,
2013-04-22 16:45:00,89.4,41.8,29.81,NW,306,4.0,7.0,19,0.00,,SKC,0.00,VWS V14.01,2013-04-22 23:45:00,
2013-04-22 16:55:00,89.8,42.1,29.81,North,350,1.0,9.0,19,0.00,,SKC,0.00,VWS V14.01,2013-04-22 23:55:00,
2013-04-22 17:00:00,89.7,42.0,29.80,WNW,287,5.0,7.0,19,0.00,,SKC,0.00,VWS V14.01,2013-04-23 00:00:00,
2013-04-22 17:10:00,89.8,43.4,29.80,North,360,4.0,11.0,20,0.00,,SKC,0.00,VWS V14.01,2013-04-23 00:10:00,
2013-04-22 17:15:00,89.3,43.0,29.81,NNE,26,2.0,9.0,20,0.00,,SKC,0.00,VWS V14.01,2013-04-23 00:15:00,
2013-04-22 17:20:00,89.3,43.0,29.80,North,355,2.0,7.0,20,0.00,,SKC,0.00,VWS V14.01,2013-04-23 00:20:00,
2013-04-22 17:25:00,89.4,43.1,29.80,NNE,13,2.0,9.0,20,0.00,,SKC,0.00,VWS V14.01,2013-04-23 00:25:00,
2013-04-22 17:35:00,89.0,40.0,29.80,NW,315,4.0,9.0,18,0.00,,SKC,0.00,VWS V14.01,2013-04-23 00:35:00,
2013-04-22 17:45:00,88.3,40.9,29.80,North,360,1.0,7.0,19,0.00,,SKC,0.00,VWS V14.01,2013-04-23 00:45:00,
2013-04-22 17:55:00,88.3,40.9,29.80,NE,36,5.0,6.0,19,0.00,,SKC,0.00,VWS V14.01,2013-04-23 00:55:00,
2013-04-22 18:00:00,88.2,40.8,29.81,North,360,7.0,13.0,19,0.00,,SKC,0.00,VWS V14.01,2013-04-23 01:00:00,
2013-04-22 18:10:00,87.0,39.8,29.81,WNW,286,4.0,8.0,19,0.00,,SKC,0.00,VWS V14.01,2013-04-23 01:10:00,
2013-04-22 18:15:00,86.9,39.7,29.81,WNW,298,2.0,7.0,19,0.00,,SKC,0.00,VWS V14.01,2013-04-23 01:15:00,
2013-04-22 18:20:00,86.7,40.9,29.81,NW,310,5.0,9.0,20,0.00,,SKC,0.00,VWS V14.01,2013-04-23 01:20:00,
2013-04-22 18:25:00,85.8,49.9,29.81,WNW,298,5.0,10.0,29,0.00,,SKC,0.00,VWS V14.01,2013-04-23 01:25:00,
2013-04-22 18:30:00,84.6,51.5,29.81,NW,311,6.0,7.0,32,0.00,,SKC,0.00,VWS V14.01,2013-04-23 01:30:00,
2013-04-22 18:35:00,83.7,51.6,29.81,NW,317,4.0,8.0,33,0.00,,SKC,0.00,VWS V14.01,2013-04-23 01:35:00,
2013-04-22 18:45:00,82.5,52.9,29.81,WSW,254,0.0,10.0,36,0.00,,SKC,0.00,VWS V14.01,2013-04-23 01:45:00,
2013-04-22 18:50:00,82.0,52.4,29.81,WNW,286,1.0,4.0,36,0.00,,SKC,0.00,VWS V14.01,2013-04-23 01:50:00,
2013-04-22 19:00:00,80.9,52.2,29.81,NW,322,1.0,10.0,37,0.00,,SKC,0.00,VWS V14.01,2013-04-23 02:00:00,
2013-04-22 19:05:00,80.3,52.4,29.81,North,350,0.0,6.0,38,0.00,,SKC,0.00,VWS V14.01,2013-04-23 02:05:00,
2013-04-22 19:10:00,79.8,52.7,29.81,NW,311,0.0,6.0,39,0.00,,SKC,0.00,VWS V14.01,2013-04-23 02:10:00,
2013-04-22 19:15:00,79.3,52.2,29.81,NNW,338,5.0,7.0,39,0.00,,SKC,0.00,VWS V14.01,2013-04-23 02:15:00,
2013-04-22 19:25:00,78.0,51.8,29.82,WNW,299,0.0,7.0,40,0.00,,SKC,0.00,VWS V14.01,2013-04-23 02:25:00,
2013-04-22 19:30:00,77.5,51.3,29.82,West,269,1.0,5.0,40,0.00,,SKC,0.00,VWS V14.01,2013-04-23 02:30:00,
2013-04-22 19:35:00,76.9,51.4,29.82,WNW,295,2.0,5.0,41,0.00,,SKC,0.00,VWS V14.01,2013-04-23 02:35:00,
2013-04-22 19:40:00,76.2,51.5,29.82,North,10,0.0,6.0,42,0.00,,SKC,0.00,VWS V14.01,2013-04-23 02:40:00,
2013-04-22 19:45:00,75.6,51.5,29.82,North,11,0.0,3.0,43,0.00,,SKC,0.00,VWS V14.01,2013-04-23 02:45:00,
2013-04-22 19:55:00,73.7,51.7,29.83,North,9,4.0,5.0,46,0.00,,SKC,0.00,VWS V14.01,2013-04-23 02:55:00,
2013-04-22 20:00:00,72.7,51.3,29.83,North,360,4.0,5.0,47,0.00,,SKC,0.00,VWS V14.01,2013-04-23 03:00:00,
2013-04-22 20:05:00,72.0,51.3,29.83,North,9,2.0,5.0,48,0.00,,SKC,0.00,VWS V14.01,2013-04-23 03:05:00,
2013-04-22 20:10:00,71.6,51.5,29.83,North,9,0.0,2.0,49,0.00,,SKC,0.00,VWS V14.01,2013-04-23 03:10:00,
2013-04-22 20:20:00,70.9,51.3,29.83,North,9,2.0,6.0,50,0.00,,SKC,0.00,VWS V14.01,2013-04-23 03:20:00,
2013-04-22 20:25:00,70.6,51.6,29.83,NNE,16,4.0,5.0,51,0.00,,SKC,0.00,VWS V14.01,2013-04-23 03:25:00,
2013-04-22 20:30:00,70.1,50.6,29.84,NNE,15,3.0,4.0,50,0.00,,SKC,0.00,VWS V14.01,2013-04-23 03:30:00,
2013-04-22 20:40:00,69.9,51.0,29.84,North,355,2.0,4.0,51,0.00,,SKC,0.00,VWS V14.01,2013-04-23 03:40:00,
2013-04-22 20:45:00,69.7,50.8,29.84,NNE,19,3.0,4.0,51,0.00,,SKC,0.00,VWS V14.01,2013-04-23 03:45:00,
2013-04-22 20:50:00,69.3,50.4,29.84,North,10,3.0,6.0,51,0.00,,SKC,0.00,VWS V14.01,2013-04-23 03:50:00,
2013-04-22 20:55:00,68.9,50.0,29.85,North,5,2.0,4.0,51,0.00,,SKC,0.00,VWS V14.01,2013-04-23 03:55:00,
2013-04-22 21:05:00,68.2,49.9,29.85,North,11,2.0,5.0,52,0.00,,SKC,0.00,VWS V14.01,2013-04-23 04:05:00,
2013-04-22 21:10:00,67.7,50.5,29.85,North,11,0.0,2.0,54,0.00,,SKC,0.00,VWS V14.01,2013-04-23 04:10:00,
2013-04-22 21:15:00,67.1,50.4,29.85,North,11,0.0,1.0,55,0.00,,SKC,0.00,VWS V14.01,2013-04-23 04:15:00,
2013-04-22 21:20:00,66.3,49.7,29.85,North,11,0.0,0.0,55,0.00,,SKC,0.00,VWS V14.01,2013-04-23 04:20:00,
2013-04-22 21:25:00,65.7,49.1,29.85,North,11,0.0,0.0,55,0.00,,SKC,0.00,VWS V14.01,2013-04-23 04:25:00,
2013-04-22 21:30:00,65.3,49.2,29.85,North,11,0.0,0.0,56,0.00,,SKC,0.00,VWS V14.01,2013-04-23 04:30:00,
2013-04-22 21:35:00,64.9,49.8,29.85,North,11,0.0,0.0,58,0.00,,SKC,0.00,VWS V14.01,2013-04-23 04:35:00,
2013-04-22 21:40:00,64.5,49.9,29.85,North,11,0.0,0.0,59,0.00,,SKC,0.00,VWS V14.01,2013-04-23 04:40:00,
2013-04-22 21:45:00,64.2,49.6,29.85,North,11,0.0,0.0,59,0.00,,SKC,0.00,VWS V14.01,2013-04-23 04:45:00,
2013-04-22 21:50:00,64.0,49.8,29.85,North,11,0.0,0.0,60,0.00,,SKC,0.00,VWS V14.01,2013-04-23 04:50:00,
2013-04-22 21:55:00,63.8,49.2,29.85,North,11,0.0,0.0,59,0.00,,SKC,0.00,VWS V14.01,2013-04-23 04:55:00,
2013-04-22 22:00:00,63.8,49.7,29.85,North,11,0.0,0.0,60,0.00,,SKC,0.00,VWS V14.01,2013-04-23 05:00:00,
2013-04-22 22:05:00,63.9,49.3,29.85,North,11,0.0,0.0,59,0.00,,SKC,0.00,VWS V14.01,2013-04-23 05:05:00,
2013-04-22 22:15:00,63.5,49.4,29.85,North,11,0.0,0.0,60,0.00,,SKC,0.00,VWS V14.01,2013-04-23 05:15:00,
2013-04-22 22:20:00,63.1,49.0,29.85,North,11,0.0,0.0,60,0.00,,SKC,0.00,VWS V14.01,2013-04-23 05:20:00,
2013-04-22 22:30:00,62.4,48.3,29.85,North,11,0.0,0.0,60,0.00,,SKC,0.00,VWS V14.01,2013-04-23 05:30:00,
2013-04-22 22:35:00,62.1,48.5,29.85,North,11,0.0,0.0,61,0.00,,SKC,0.00,VWS V14.01,2013-04-23 05:35:00,
2013-04-22 22:40:00,61.7,47.7,29.85,North,11,0.0,0.0,60,0.00,,SKC,0.00,VWS V14.01,2013-04-23 05:40:00,
2013-04-22 22:45:00,61.3,47.8,29.85,North,11,0.0,0.0,61,0.00,,SKC,0.00,VWS V14.01,2013-04-23 05:45:00,
2013-04-22 22:55:00,60.7,47.2,29.85,North,11,0.0,0.0,61,0.00,,SKC,0.00,VWS V14.01,2013-04-23 05:55:00,
2013-04-22 23:00:00,60.3,46.8,29.84,North,11,0.0,0.0,61,0.00,,SKC,0.00,VWS V14.01,2013-04-23 06:00:00,
2013-04-22 23:05:00,59.9,46.4,29.85,North,11,0.0,0.0,61,0.00,,SKC,0.00,VWS V14.01,2013-04-23 06:05:00,
2013-04-22 23:15:00,59.0,46.0,29.85,North,11,0.0,0.0,62,0.00,,SKC,0.00,VWS V14.01,2013-04-23 06:15:00,
2013-04-22 23:20:00,59.0,46.4,29.84,North,11,0.0,0.0,63,0.00,,SKC,0.00,VWS V14.01,2013-04-23 06:20:00,
2013-04-22 23:25:00,58.7,46.2,29.84,North,11,1.0,3.0,63,0.00,,SKC,0.00,VWS V14.01,2013-04-23 06:25:00,
2013-04-22 23:30:00,58.4,45.9,29.84,North,11,0.0,2.0,63,0.00,,SKC,0.00,VWS V14.01,2013-04-23 06:30:00,
2013-04-22 23:40:00,58.2,46.1,29.84,NE,49,0.0,0.0,64,0.00,,SKC,0.00,VWS V14.01,2013-04-23 06:40:00,
2013-04-22 23:45:00,58.1,46.0,29.84,NE,49,0.0,1.0,64,0.00,,SKC,0.00,VWS V14.01,2013-04-23 06:45:00,
2013-04-22 23:55:00,57.6,45.9,29.84,NE,49,0.0,0.0,65,0.00,,SKC,0.00,VWS V14.01,2013-04-23 06:55:00,